TimeEDT,TemperatureF,Dew PointF,Humidity,Sea Level PressureIn,VisibilityMPH,Wind Direction,Wind SpeedMPH,Gust SpeedMPH,PrecipitationIn,Events,Conditions,WindDirDegrees,DateUTC
12:53 AM,66.9,63.0,87,29.89,7.0,Calm,Calm,-,N/A,,Clear,0,2013-05-22 04:53:00
1:44 AM,66.2,62.6,88,29.90,6.0,ENE,4.6,-,N/A,,Scattered Clouds,70,2013-05-22 05:44:00
1:53 AM,66.0,63.0,90,29.90,6.0,East,3.5,-,N/A,,Mostly Cloudy,80,2013-05-22 05:53:00
2:53 AM,64.9,62.1,90,29.89,4.0,East,3.5,-,N/A,,Overcast,90,2013-05-22 06:53:00
3:53 AM,62.1,57.0,84,29.91,8.0,NE,12.7,18.4,N/A,,Overcast,50,2013-05-22 07:53:00
4:16 AM,59.0,55.4,88,29.92,6.0,ENE,9.2,19.6,N/A,Thunderstorm,Overcast,60,2013-05-22 08:16:00
4:53 AM,57.0,54.0,89,29.95,6.0,NNE,8.1,-,N/A,,Overcast,30,2013-05-22 08:53:00
5:06 AM,57.2,53.6,88,29.94,6.0,East,11.5,-,0.01,Rain-Thunderstorm,Light Rain,100,2013-05-22 09:06:00
5:21 AM,57.2,53.6,88,29.93,10.0,SE,5.8,-,0.01,Thunderstorm,Overcast,130,2013-05-22 09:21:00
5:33 AM,57.2,55.4,94,29.93,10.0,Variable,3.5,-,0.01,,Overcast,0,2013-05-22 09:33:00
5:53 AM,57.9,55.0,90,29.93,10.0,SE,8.1,-,0.01,,Overcast,140,2013-05-22 09:53:00
6:46 AM,59.0,55.4,88,29.94,10.0,ESE,5.8,-,N/A,,Overcast,120,2013-05-22 10:46:00
6:53 AM,59.0,55.9,90,29.93,10.0,SE,6.9,-,N/A,,Overcast,130,2013-05-22 10:53:00
7:53 AM,57.9,55.9,93,29.94,6.0,Calm,Calm,-,N/A,,Overcast,0,2013-05-22 11:53:00
8:23 AM,57.2,55.4,94,29.95,2.5,Calm,Calm,-,N/A,,Overcast,0,2013-05-22 12:23:00
8:41 AM,57.2,55.4,94,29.95,1.5,South,4.6,-,N/A,,Overcast,170,2013-05-22 12:41:00
8:53 AM,57.0,55.0,93,29.94,1.5,SE,4.6,-,N/A,,Overcast,130,2013-05-22 12:53:00
9:43 AM,59.0,55.4,88,29.94,2.0,SE,3.5,-,N/A,,Overcast,130,2013-05-22 13:43:00
9:53 AM,59.0,57.0,93,29.94,2.5,Calm,Calm,-,N/A,,Overcast,0,2013-05-22 13:53:00
10:26 AM,60.8,57.2,88,29.95,3.0,WSW,3.5,-,N/A,,Overcast,240,2013-05-22 14:26:00
10:53 AM,62.1,57.9,86,29.94,3.0,Calm,Calm,-,N/A,,Overcast,0,2013-05-22 14:53:00
11:53 AM,66.0,61.0,84,29.93,6.0,East,3.5,-,N/A,,Haze,100,2013-05-22 15:53:00
12:17 PM,68.0,62.6,83,29.94,6.0,SW,3.5,-,N/A,,Haze,220,2013-05-22 16:17:00
12:53 PM,71.1,64.0,78,29.92,6.0,Calm,Calm,-,N/A,,Haze,0,2013-05-22 16:53:00